Terminal Aerodrome Forecast
Issued by NWS

Home | Current Version | Previous Version | Text Only | Print | Product List | Glossary On
Versions: 1 2 3 4 5 6 7 8 9 10 11 12
000
FTUS45 KRIW 222320
TAFPNA
TAF
KPNA 222320Z 2300/2324 32016G26KT P6SM SKC
     FM230200 32015KT P6SM SKC
     FM230500 33009KT P6SM SKC
     FM230700 02007KT P6SM SKC
     FM231900 31013G23KT P6SM SCT100
      AMD LTD TO CLD VIS AND WIND=

USA.gov is the U.S. government's official web portal to all federal, state and local government web resources and services.